Location: *
(38.4303°S, 157.0822°W)
Time: 15:24:06
(UTC+00:00)

Cosmos 158 Rocket - Pass Details

Date: 21 May 2024
Orbit: 695 x 790 km, 74.0° (Epoch: 14 June)

Event Time Altitude Azimuth Distance (km) Brightness Sun altitude
Rises 16:49:12 0° 323° (NW) 3,202 7.0 -8.0°
Reaches altitude 10° 16:51:43 10° 315° (NW) 2,269 6.2 -7.5°
Maximum altitude 16:56:31 39° 246° (WSW) 1,103 4.4 -6.7°
Drops below altitude 10° 17:01:16 10° 177° (S) 2,238 6.2 -5.8°
Sets 17:03:44 0° 169° (S) 3,152 7.1 -5.3°
